When you browse on this site, cookies collect data to enhance your experience and personalize the content and advertising you see.
Visit our Privacy Policy to learn more. By continuing to use the site, you agree to this use of cookies and data.
  • In France
  • List of Countries
  • For 7 days
  • Water Temperature
  • Weather Map
  • Weather Widgets
  • user-avatar
    Login

    Hourly Weather Kabul

    Today, 18 September, Wednesday

    Time Temperature Precipitation Wind Pressure Humidity
    00:00 +16°C° 0 mm 1 mps 609 mmHg 15%
    01:00 +15°C° 0 mm 1 mps 609 mmHg 16%
    02:00 +13°C° 0 mm 0 mps 609 mmHg 16%
    03:00 +13°C° 0 mm 0 mps 608 mmHg 17%
    04:00 +12°C° 0 mm 0 mps 608 mmHg 17%
    05:00 +12°C° 0 mm 0 mps 608 mmHg 18%
    06:00 +14°C° 0 mm 0 mps 610 mmHg 15%
    07:00 +17°C° 0 mm 0 mps 611 mmHg 12%
    08:00 +20°C° 0 mm 0 mps 613 mmHg 9%
    09:00 +23°C° 0 mm 1 mps 613 mmHg 8%
    10:00 +25°C° 0 mm 1 mps 614 mmHg 7%
    11:00 +27°C° 0 mm 1 mps 614 mmHg 6%
    12:00 +28°C° 0 mm 1 mps 614 mmHg 6%
    13:00 +29°C° 0 mm 2 mps 614 mmHg 5%
    14:00 +30°C° 0 mm 2 mps 614 mmHg 5%
    15:00 +30°C° 0 mm 2 mps 614 mmHg 5%
    16:00 +30°C° 0 mm 2 mps 614 mmHg 5%
    17:00 +30°C° 0 mm 2 mps 614 mmHg 5%
    18:00 +27°C° 0 mm 2 mps 613 mmHg 8%
    19:00 +24°C° 0 mm 1 mps 613 mmHg 11%
    20:00 +21°C° 0 mm 1 mps 612 mmHg 14%
    21:00 +21°C° 0 mm 1 mps 612 mmHg 16%
    22:00 +20°C° 0 mm 1 mps 612 mmHg 17%
    23:00 +19°C° 0 mm 1 mps 612 mmHg 18%

    Tomorrow, 19 September, Thursday

    Time Temperature Precipitation Wind Pressure Humidity
    00:00 +18°C° 0 mm 1 mps 611 mmHg 17%
    01:00 +18°C° 0 mm 1 mps 611 mmHg 16%
    02:00 +16°C° 0 mm 1 mps 610 mmHg 15%
    03:00 +15°C° 0 mm 1 mps 610 mmHg 15%
    04:00 +15°C° 0 mm 1 mps 610 mmHg 14%
    05:00 +14°C° 0 mm 1 mps 610 mmHg 14%
    06:00 +16°C° 0 mm 1 mps 611 mmHg 12%
    07:00 +19°C° 0 mm 1 mps 613 mmHg 11%
    08:00 +21°C° 0 mm 1 mps 614 mmHg 9%
    09:00 +23°C° 0 mm 1 mps 614 mmHg 8%
    10:00 +25°C° 0 mm 1 mps 615 mmHg 7%
    11:00 +27°C° 0 mm 1 mps 615 mmHg 6%
    12:00 +28°C° 0 mm 1 mps 615 mmHg 5%
    13:00 +29°C° 0 mm 2 mps 615 mmHg 5%
    14:00 +30°C° 0 mm 2 mps 615 mmHg 4%
    15:00 +30°C° 0 mm 3 mps 615 mmHg 5%
    16:00 +30°C° 0 mm 3 mps 615 mmHg 6%
    17:00 +30°C° 0 mm 4 mps 614 mmHg 6%
    18:00 +27°C° 0 mm 3 mps 614 mmHg 9%
    19:00 +24°C° 0 mm 3 mps 613 mmHg 12%
    20:00 +21°C° 0 mm 2 mps 613 mmHg 15%
    21:00 +20°C° 0 mm 2 mps 612 mmHg 17%
    22:00 +19°C° 0 mm 2 mps 612 mmHg 18%
    23:00 +19°C° 0 mm 1 mps 612 mmHg 20%

    Day after tomorrow, 20 September, Friday

    Time Temperature Precipitation Wind Pressure Humidity
    00:00 +18°C° 0 mm 1 mps 611 mmHg 21%
    01:00 +16°C° 0 mm 1 mps 611 mmHg 22%
    02:00 +15°C° 0 mm 1 mps 611 mmHg 23%
    03:00 +15°C° 0 mm 1 mps 610 mmHg 24%
    04:00 +14°C° 0 mm 1 mps 610 mmHg 25%
    05:00 +14°C° 0 mm 1 mps 610 mmHg 26%
    06:00 +16°C° 0 mm 1 mps 611 mmHg 23%
    07:00 +19°C° 0 mm 1 mps 612 mmHg 20%
    08:00 +18°C° 0 mm 0 mps 613 mmHg 17%
    09:00 +22°C° 0 mm 1 mps 613 mmHg 15%
    10:00 +24°C° 0 mm 1 mps 613 mmHg 13%
    11:00 +26°C° 0 mm 1 mps 614 mmHg 12%
    12:00 +27°C° 0 mm 1 mps 614 mmHg 10%
    13:00 +28°C° 0 mm 1 mps 614 mmHg 9%
    14:00 +29°C° 0 mm 2 mps 613 mmHg 7%
    15:00 +29°C° 0 mm 2 mps 613 mmHg 7%
    16:00 +29°C° 0 mm 2 mps 613 mmHg 7%
    17:00 +29°C° 0 mm 2 mps 613 mmHg 7%
    18:00 +27°C° 0 mm 2 mps 613 mmHg 10%
    19:00 +24°C° 0 mm 2 mps 612 mmHg 13%
    20:00 +21°C° 0 mm 2 mps 612 mmHg 15%
    21:00 +20°C° 0 mm 2 mps 612 mmHg 17%
    22:00 +19°C° 0 mm 2 mps 611 mmHg 19%
    23:00 +19°C° 0 mm 1 mps 611 mmHg 20%

    21 September, Saturday

    Time Temperature Precipitation Wind Pressure Humidity
    00:00 +18°C° 0 mm 1 mps 611 mmHg 22%
    01:00 +16°C° 0 mm 1 mps 610 mmHg 24%
    02:00 +15°C° 0 mm 1 mps 609 mmHg 25%
    03:00 +15°C° 0 mm 1 mps 609 mmHg 26%
    04:00 +14°C° 0 mm 1 mps 609 mmHg 27%
    05:00 +13°C° 0 mm 0 mps 609 mmHg 28%
    06:00 +15°C° 0 mm 0 mps 610 mmHg 25%
    07:00 +17°C° 0 mm 0 mps 611 mmHg 21%
    08:00 +19°C° 0 mm 0 mps 612 mmHg 18%
    09:00 +21°C° 0 mm 0 mps 612 mmHg 16%
    10:00 +24°C° 0 mm 1 mps 613 mmHg 14%
    11:00 +26°C° 0 mm 1 mps 613 mmHg 12%
    12:00 +27°C° 0 mm 1 mps 613 mmHg 11%
    13:00 +29°C° 0 mm 1 mps 613 mmHg 9%
    14:00 +30°C° 0 mm 2 mps 612 mmHg 8%
    15:00 +30°C° 0 mm 2 mps 612 mmHg 8%
    16:00 +30°C° 0 mm 2 mps 612 mmHg 7%
    17:00 +30°C° 0 mm 2 mps 612 mmHg 7%
    18:00 +27°C° 0 mm 2 mps 612 mmHg 10%
    19:00 +24°C° 0 mm 1 mps 611 mmHg 14%
    20:00 +21°C° 0 mm 1 mps 610 mmHg 17%
    21:00 +20°C° 0 mm 1 mps 610 mmHg 19%
    22:00 +20°C° 0 mm 1 mps 609 mmHg 21%
    23:00 +19°C° 0 mm 1 mps 609 mmHg 23%

    22 September, Sunday

    Time Temperature Precipitation Wind Pressure Humidity
    00:00 +16°C° 0 mm 0 mps 609 mmHg 25%
    01:00 +15°C° 0 mm 0 mps 609 mmHg 26%
    02:00 +15°C° 0 mm 0 mps 608 mmHg 27%
    03:00 +14°C° 0 mm 0 mps 608 mmHg 29%
    04:00 +14°C° 0 mm 0 mps 608 mmHg 31%
    05:00 +13°C° 0 mm 0 mps 608 mmHg 33%
    06:00 +16°C° 0 mm 0 mps 609 mmHg 29%
    07:00 +18°C° 0 mm 0 mps 611 mmHg 25%
    08:00 +21°C° 0 mm 0 mps 612 mmHg 21%
    09:00 +22°C° 0 mm 0 mps 613 mmHg 20%
    10:00 +26°C° 0 mm 1 mps 613 mmHg 20%
    11:00 +27°C° 0 mm 1 mps 614 mmHg 19%
    12:00 +28°C° 0 mm 2 mps 614 mmHg 18%
    13:00 +29°C° 0 mm 2 mps 613 mmHg 16%
    14:00 +30°C° 0 mm 2 mps 613 mmHg 14%
    15:00 +30°C° 0 mm 2 mps 613 mmHg 16%
    16:00 +30°C° 0 mm 2 mps 613 mmHg 17%
    17:00 +30°C° 0 mm 3 mps 613 mmHg 18%
    18:00 +28°C° 0 mm 2 mps 613 mmHg 26%
    19:00 +25°C° 0 mm 2 mps 612 mmHg 35%
    20:00 +23°C° 0 mm 1 mps 612 mmHg 43%
    21:00 +22°C° 0 mm 1 mps 612 mmHg 45%
    22:00 +21°C° 0 mm 1 mps 612 mmHg 46%
    23:00 +20°C° 0 mm 1 mps 612 mmHg 47%

    23 September, Monday

    Time Temperature Precipitation Wind Pressure Humidity
    00:00 +20°C° 0 mm 1 mps 612 mmHg 44%
    01:00 +19°C° 0 mm 1 mps 611 mmHg 42%
    02:00 +18°C° 0 mm 1 mps 611 mmHg 39%
    03:00 +16°C° 0 mm 1 mps 611 mmHg 35%
    04:00 +16°C° 0 mm 1 mps 611 mmHg 30%
    05:00 +15°C° 0 mm 1 mps 610 mmHg 26%
    06:00 +18°C° 0 mm 1 mps 612 mmHg 22%
    07:00 +20°C° 0 mm 1 mps 613 mmHg 17%
    08:00 +22°C° 0 mm 1 mps 614 mmHg 13%
    09:00 +24°C° 0 mm 1 mps 614 mmHg 12%
    10:00 +25°C° 0 mm 1 mps 614 mmHg 11%
    11:00 +27°C° 0 mm 1 mps 615 mmHg 9%
    12:00 +28°C° 0 mm 1 mps 615 mmHg 8%
    13:00 +30°C° 0 mm 1 mps 614 mmHg 7%
    14:00 +31°C° 0 mm 1 mps 614 mmHg 6%
    15:00 +31°C° 0 mm 2 mps 614 mmHg 7%
    16:00 +31°C° 0 mm 2 mps 614 mmHg 7%
    17:00 +31°C° 0 mm 2 mps 614 mmHg 7%
    18:00 +28°C° 0 mm 2 mps 613 mmHg 11%
    19:00 +25°C° 0 mm 2 mps 612 mmHg 15%
    20:00 +22°C° 0 mm 1 mps 612 mmHg 19%
    21:00 +21°C° 0 mm 1 mps 611 mmHg 22%
    22:00 +20°C° 0 mm 1 mps 611 mmHg 24%
    23:00 +19°C° 0 mm 1 mps 611 mmHg 26%
    Show more